Terminal Aerodrome Forecast
Issued by NWS

Home | Current Version | Previous Version | Text Only | Print | Product List | Glossary On
Versions: 1 2 3 4 5 6 7 8 9 10 11 12 13 14 15 16
000
FTUS46 KMTR 251700
TAFSTS
TAF
KSTS 251736Z 2518/2618 19010KT P6SM VCSH SCT015 BKN040
     FM252000 18012KT P6SM -SHRA BKN040
      TEMPO 2521/2524 -TSRA BKN025CB
     FM260300 18005KT P6SM BKN050
     FM260900 00000KT 5SM BR OVC010
     FM261200 VRB04KT 1/2SM FG VV003=

USA.gov is the U.S. government's official web portal to all federal, state and local government web resources and services.